Simultaneous Nadir Overpasses (SNOs) Predictions

Prediction of SNOs between GOES-17 and METOP-B Satellite Orbit:

Table of predicted SNOs for the next 14.0 days since TLE Epoch: 3/2/2024
Index Date Time (GOES-17) GOES-17 Lat,Lon METOP-B Lat,Lon Distance(km) Time Diff (sec)
1 03/02/2024 04:26:49 -0.00,-104.68 -0.10,-105.08 44.92 80
2 03/04/2024 16:25:04 -0.01,-104.69 -0.01,-104.67 2.40 80
3 03/07/2024 04:20:47 0.01,-104.68 0.10,-104.30 43.75 80
4 03/08/2024 16:39:40 -0.01,-104.68 0.91,-108.88 477.29 80
5 03/09/2024 16:21:41 -0.01,-104.69 -0.16,-103.88 91.14 80
6 03/11/2024 04:40:42 0.01,-104.68 -0.86,-108.49 434.60 80
7 03/12/2024 04:17:24 0.00,-104.68 0.26,-103.51 133.72 80
8 03/13/2024 16:36:17 -0.01,-104.69 0.73,-108.09 387.26 80
9 03/14/2024 16:18:18 -0.01,-104.69 -0.34,-103.09 181.12 80
